CUBESX-HSE 3 (RS42S)

Last updated on Sun Jun 21 2026 00:03:20 GMT+0000 (Coordinated Universal Time)

1 57178U 23091N 26171.44125536 .00011017 00000+0 36631-3 0 9991 2 57178 97.5086 237.0698 0011948 84.7993 275.4611 15.31283284164928
UTC large
Height (km)
Speed (km/s)
/
Latitude / Longitude
Inclination (degrees)
Orbital Period (minutes)
Azimuth
Elevation
Range (km)
Doppler Factor

Next 0 passes for location: London (51.5072 / 0.1276)

No passes found over London.
CUBESX-HSE 3 (RS42S)